Location: *
(44.3925°N, 5.4708°E)
Time: 05:40:59
(UTC+00:00)

Cosmos 1437 Rocket - Pass Details

Date: 18 September 2019
Orbit: 506 x 563 km, 81.2° (Epoch: 15 October)

Event Time Altitude Azimuth Distance (km) Brightness Sun altitude
Rises 19:18:33 0° 360° (N) 2,642 6.6 -17.3°
Reaches altitude 10° 19:20:57 10° 13° (NNE) 1,743 5.5 -17.7°
Enters shadow 19:23:26 25° 51° (NE) 1,076 4.0 -18.2°
